This is the latest recevied weather packets stored in our database for station/object KN4AN. If no packets are shown the sender has not sent any weather packets the latest 10 day(s).
| Time | Temp. | Humidity | Pressure | Rain* | Wind** | Luminosity | Snow |
|---|---|---|---|---|---|---|---|
| 1787777525 | 30.56° C | 50% | 1016.7 hPa | 0 mm | - | 330 W/m² | - |
| 1787777224 | 30.56° C | 51% | 1016.6 hPa | 0 mm | - | 336 W/m² | - |
| 1787776924 | 30.56° C | 52% | 1016.9 hPa | 0 mm | - | 299 W/m² | - |
| 1787776623 | 30° C | 54% | 1016.9 hPa | 0 mm | - | 316 W/m² | - |
| 1787776322 | 30° C | 53% | 1017.2 hPa | 0 mm | - | 301 W/m² | - |
| 1787776020 | 30° C | 53% | 1017.1 hPa | 0 mm | - | 235 W/m² | - |
| 1787775715 | 30.56° C | 53% | 1017.1 hPa | 0 mm | - | 449 W/m² | - |
| 1787775415 | 30.56° C | 54% | 1017.1 hPa | 0 mm | - | 356 W/m² | - |
| 1787775114 | 30° C | 55% | 1017.2 hPa | 0 mm | - | 420 W/m² | - |
| 1787774814 | 30.56° C | 53% | 1017 hPa | 0 mm | - | 346 W/m² | - |
| 1787774513 | 30.56° C | 52% | 1017.2 hPa | 0 mm | - | 411 W/m² | - |
| 1787774213 | 30.56° C | 51% | 1017.3 hPa | 0 mm | - | 461 W/m² | - |
| 1787773911 | 30.56° C | 53% | 1017 hPa | 0 mm | - | 512 W/m² | - |
| 1787773610 | 30.56° C | 50% | 1017.3 hPa | 0 mm | - | 322 W/m² | - |
| 1787773307 | 31.11° C | 51% | 1017.2 hPa | 0 mm | - | 492 W/m² | - |
| 1787773002 | 30.56° C | 49% | 1017.2 hPa | 0 mm | - | 441 W/m² | - |
| 1787772697 | 31.11° C | 50% | 1017 hPa | 0 mm | - | 399 W/m² | - |
| 1787772396 | 31.11° C | 50% | 1016.9 hPa | 0 mm | - | 537 W/m² | - |
| 1787772095 | 30.56° C | 49% | 1017 hPa | 0 mm | - | 562 W/m² | - |
| 1787771795 | 30.56° C | 50% | 1016.9 hPa | 0 mm | - | 573 W/m² | - |
| 1787771493 | 30.56° C | 48% | 1017.1 hPa | 0 mm | - | 596 W/m² | - |
| 1787771188 | 30.56° C | 50% | 1017.3 hPa | 0 mm | - | 613 W/m² | - |
| 1787770883 | 30.56° C | 49% | 1017.2 hPa | 0 mm | - | 640 W/m² | - |
| 1787770582 | 30.56° C | 49% | 1017.2 hPa | 0 mm | - | 635 W/m² | - |
| 1787770282 | 31.11° C | 48% | 1017.4 hPa | 0 mm | - | 650 W/m² | - |
* Rain latest hour (hover to see other rain measurements)
** Current wind speed in m/s (hover to see current wind gust speed)